Retour au catalogue

FENGYUN 1C DEB

ActifPO
NORAD 37424·DEBRIS·🇨🇳 China

Lancé May 10, 1999 depuis Taiyuan Satellite Launch Center

Loading…

Prochains Passages (prochaines 24 heures)

TLE

FraisSource: Space-Track

Époque: Sep 11, 2026, 23:12 UTC

1 37424U 99025EGS 26254.96733840  .00001441  00000-0  56300-3 0  9991
2 37424  97.2086 337.6563 0212956 184.4608 175.4681 14.19033015724476

Suivez FENGYUN 1C DEB en temps réel avec AllMySat

Download on the App Store